Location: Newark
(41.8083°N, 72.2500°W)
Time: 10:01:58
(UTC+00:00)

Explorer 11/Cluster Stage 4 - Pass Details

Date: 07 December 2021
Orbit: 467 x 1255 km, 28.8° (Epoch: 24 January)

Event Time Altitude Azimuth Distance (km) Brightness Sun altitude
Rises 06:05:03 0° 231° (SW) 3,140 - -63.9°
Reaches altitude 10° 06:07:49 10° 216° (SW) 2,358 - -63.5°
Maximum altitude 06:12:04 22° 167° (SSE) 1,862 - -62.9°
Drops below altitude 10° 06:17:01 10° 120° (ESE) 2,789 - -62.2°
Sets 06:20:37 0° 106° (ESE) 3,885 - -61.6°
